Location: Bonningues
(50.7927°N, 2.0150°E)
Time: 08:25:21
(UTC+00:00)

Cosmos 2084 Rocket - Pass Details

Date: 08 August 2020
Orbit: 549 x 632 km, 62.8° (Epoch: 26 September)

Event Time Altitude Azimuth Distance (km) Brightness Sun altitude
Exits shadow 23:35:24 46° 264° (W) 780 4.0 -23.3°
Maximum altitude 23:36:25 61° 320° (NW) 657 3.8 -23.3°
Drops below altitude 10° 23:40:43 10° 41° (NE) 1,922 6.6 -23.3°
Sets 23:43:02 0° 45° (NE) 2,842 7.5 -23.4°
